Location: Nordegg
(52.4712°N, 116.0743°W)
Time: 09:18:51
(UTC+00:00)

Envisat - Pass Details

Date: 01 December 2021
Orbit: 764 x 766 km, 98.2° (Epoch: 25 January)

Event Time Altitude Azimuth Distance (km) Brightness Sun altitude
Rises 14:01:33 0° 9° (N) 3,249 6.1 -13.1°
Reaches altitude 10° 14:04:02 10° 0° (N) 2,318 5.3 -12.7°
Maximum altitude 14:08:34 33° 298° (WNW) 1,267 3.6 -12.1°
Drops below altitude 10° 14:13:05 10° 235° (SW) 2,303 5.2 -11.4°
Sets 14:15:33 0° 226° (SW) 3,225 6.0 -11.1°
